TIANMU-1 09

Last updated on Thu Jul 03 2025 00:02:22 GMT+0000 (Coordinated Universal Time)

1 57401U 23101C 25183.58539319 .00004592 00000+0 18535-3 0 9990 2 57401 97.3040 236.5726 0003791 308.8028 51.2872 15.25271827108264
UTC large
Height (km)
Speed (km/s)
/
Latitude / Longitude
Inclination (degrees)
Orbital Period (minutes)
Azimuth
Elevation
Range (km)
Doppler Factor

Next 0 passes for location: London (51.5072 / 0.1276)

Sorry there are no passes over London.